Flag for Germany Weather past 2 weeks in Herzogenrath, North Rhine-Westphalia, Germany

Now
54 °F

Rain. Overcast.


Feels Like: 53 °F
Forecast: 47 / 64 °F
Wind: 5 mph from Northwest

Location: Maastricht Airport Zuid Limburg

Current Time: Aug 23, 2014 at 4:32:05 PM

Latest Report: Aug 23, 2014 at 3:00 PM


Visibility: 11 mi

Pressure: 29.96 "Hg

Humidity: 82%

Dew point: 49 °F

Location of HerzogenrathLocation

Historic Weather in Herzogenrath — Graph

°F

Herzogenrath temperature yesterday

Maximum temperature yesterday: 64 °F (at 3:00 PM)
Minimum temperature yesterday: 51 °F (at 6:00 AM)
Average temperature yesterday: 57 °F

Past Weeks' High & Low Weather Summary

 TemperatureHumidityPressure
High74 °F (Aug 10, 5:00 PM)98% (Aug 9, 12:00 AM)30.13 "Hg (Aug 9, 12:00 AM)
Low46 °F (Aug 20, 5:00 AM)50% (Aug 21, 3:00 PM)29.55 "Hg (Aug 10, 6:00 PM)
Average59 °F81%29.88 "Hg
* Reported Aug 8 3:00 PM — Aug 23 3:00 PM, Herzogenrath, Weather by CustomWeather, © 2014

Note: Actual official high and low records may vary slightly from our data, if they occured in-between our weather recording intervals... More about our weather records

Advertising

Herzogenrath weather history for previous 24 hours

 ConditionsComfort  
Time TempWeatherWind HumidityBarometerVisibility
3:00 PM
Aug 23
54 °FRain. Overcast.5 mph82%29.96 "Hg11 mi
2:00 PM62 °FPassing clouds.3 mph64%29.93 "Hg22 mi
1:00 PM62 °FPassing clouds.5 mph61%29.93 "Hg16 mi
12:00 PM60 °FScattered clouds.5 mph69%29.94 "Hg17 mi
11:00 AM58 °FScattered clouds.5 mph77%29.95 "Hg14 mi
10:00 AM56 °FOvercast.5 mph87%29.93 "Hg11 mi
9:00 AM56 °FPartly sunny.5 mph88%29.93 "Hg13 mi
8:00 AM54 °FPartly sunny.2 mph96%29.92 "Hg6 mi
7:00 AM52 °FPartly sunny.3 mph97%29.90 "Hg4 mi
6:00 AM53 °FDrizzle. Low clouds.3 mph96%29.91 "Hg5 mi
5:00 AM53 °FLow clouds.3 mph96%29.91 "Hg7 mi
4:00 AM53 °FLow clouds.2 mph96%29.91 "Hg7 mi
3:00 AM52 °FPassing clouds.2 mph97%29.91 "Hg6 mi
2:00 AM53 °FOvercast.2 mph96%29.91 "Hg8 mi
1:00 AM54 °FOvercast.3 mph94%29.92 "Hg14 mi
12:00 AM53 °FOvercast.2 mph96%29.92 "Hg10 mi
11:00 PM
Aug 22
52 °FPassing clouds.2 mph95%29.91 "Hg22 mi
10:00 PM54 °FOvercast.1 mph86%29.92 "Hg25 mi
9:00 PM56 °FFog.5 mph90%29.89 "Hg22 mi
8:00 PM56 °FOvercast.2 mph94%29.89 "Hg15 mi
7:00 PM56 °FLight rain. Overcast.3 mph94%29.88 "Hg8 mi
6:00 PM56 °FRain showers. Low clouds.5 mph93%29.90 "Hg5 mi
5:00 PM61 °FOvercast.6 mph65%29.87 "Hg22 mi
4:00 PM64 °FOvercast.7 mph54%29.87 "Hg22 mi
Weather by CustomWeather, © 2014

See weather overviewHow to use our weather pages